This is the latest recevied weather packets stored in our database for station/object DL9GRB-13. If no packets are shown the sender has not sent any weather packets the latest 10 day(s).
| Time | Temp. | Humidity | Pressure | Rain* | Wind** | Luminosity | Snow |
|---|---|---|---|---|---|---|---|
| 1777019524 | 9.44° C | 81% | 1017.1 hPa | 0 mm | - | 327 W/m² | - |
| 1777019344 | 9.44° C | 83% | 1017.2 hPa | 0 mm | - | 329 W/m² | - |
| 1777019164 | 8.89° C | 83% | 1017.1 hPa | 0 mm | - | 270 W/m² | - |
| 1777018984 | 9.44° C | 82% | 1017.1 hPa | 0 mm | - | 264 W/m² | - |
| 1777018804 | 8.89° C | 83% | 1017 hPa | 0 mm | - | 283 W/m² | - |
| 1777018624 | 8.89° C | 82% | 1017.1 hPa | 0 mm | - | 305 W/m² | - |
| 1777018444 | 8.89° C | 83% | 1017.1 hPa | 0 mm | - | 274 W/m² | - |
| 1777018264 | 8.89° C | 83% | 1017.1 hPa | 0 mm | - | 259 W/m² | - |
| 1777018084 | 8.89° C | 83% | 1017.1 hPa | 0 mm | - | 259 W/m² | - |
| 1777017904 | 8.89° C | 83% | 1017.3 hPa | 0 mm | - | 234 W/m² | - |
| 1777017724 | 8.89° C | 83% | 1017.4 hPa | 0 mm | - | 212 W/m² | - |
| 1777017544 | 8.89° C | 84% | 1017.3 hPa | 0 mm | - | 218 W/m² | - |
| 1777017364 | 8.89° C | 83% | 1017.2 hPa | 0 mm | - | 226 W/m² | - |
| 1777017184 | 8.33° C | 84% | 1017.1 hPa | 0 mm | - | 207 W/m² | - |
| 1777017004 | 8.33° C | 83% | 1016.9 hPa | 0 mm | - | 213 W/m² | - |
| 1777016824 | 8.89° C | 83% | 1017.2 hPa | 0 mm | - | 207 W/m² | - |
| 1777016644 | 8.89° C | 84% | 1017.2 hPa | 0 mm | - | 236 W/m² | - |
| 1777016464 | 8.33° C | 84% | 1017.4 hPa | 0 mm | - | 270 W/m² | - |
| 1777016284 | 8.89° C | 83% | 1017.3 hPa | 0 mm | - | 196 W/m² | - |
| 1777016104 | 8.33° C | 84% | 1017.2 hPa | 0 mm | - | 205 W/m² | - |
| 1777015924 | 8.33° C | 84% | 1017.3 hPa | 0 mm | - | 236 W/m² | - |
* Rain latest hour (hover to see other rain measurements)
** Current wind speed in m/s (hover to see current wind gust speed)